RS-44 & BREEZE-KM R/B (44909 NORAD) Tracking and Keplerian Element Data

This shows tracking and keplerian element data for the satellite.

Feedback or suggestion? Click here.




ElementValue
Catalog44909
NameRS-44 & BREEZE-KM R/B
Epoch Orbit22401
Epoch Day286.77460751
Epoch Year2024
RAAN26.6273
Inclination82.5261
Eccentricity0.021832
Argument of Perigee136.1263
Mean Anonmoly225.7411
Mean Motion12.79734988
Decay Rate2.3E-07
L11 44909U 19096E 24286.77460751 .00000023 00000+0 39293-4 0 9994
L22 44909 82.5261 26.6273 0218320 136.1263 225.7411 12.79734988224015



Live tracking and technical data element details for RS-44 & BREEZE-KM R/B (NORAD 44909). RS-44 & BREEZE-KM R/B can be tracked NOW for your location showing map with azimuth and elevation plus other details from your city location.







IsCatalogInMostPopularTable: catalog: 44909, numindb: 3756
Update: records affected: 1



GetName: 44909 RS-44 & BREEZE-KM R/B

Hit Count: updated at: Thu, 23 Jan 2025 14:57:51 GMT